Regional Weather Roundup
Issued by NWS Kansas City/Pleasant Hill, MO

Home | Current Version | Previous Version | Text Only | Print | Product List | Glossary On
Versions: 1 2 3 4 5 6 7 8 9 10 11 12 13 14 15 16 17 18 19 20 21 22 23 24 25 26 27 28 29 30 31 32 33 34 35 36 37 38 39 40 41 42 43 44 45 46 47 48 49 50
453
ASUS43 KEAX 231110
RWREAX

WEATHER ROUNDUP FOR EASTERN KANSAS AND NORTHWEST MISSOURI
NATIONAL WEATHER SERVICE KANSAS CITY/PLEASANT HILL MO
600 AM CDT MON APR 23 2018

KSZ040-057-103>105-MOZ028-029-037-043-231200-
...KANSAS CITY METROPOLITAN AREA...

CITY           SKY/WX    TMP DP  RH WIND       PRES   REMARKS
K.C. INTL      CLOUDY    52  31  44 NE9       30.11R
K.C. DOWNTOWN  CLOUDY    57  30  35 N6        30.10R
LEES SUMMIT    CLOUDY    55  31  39 NE8       30.09S
OLATHE - IXD   CLOUDY    55  32  41 N8        30.10R
OLATHE - OJC   CLOUDY    55  30  38 NE8       30.09R
LAWRENCE       CLOUDY    55  30  38 NE8       30.10R

$$

MOZ001>008-011>017-020>025-030>033-038>040-044>046-053-054-231200-
...NORTHERN AND CENTRAL MISSOURI...

CITY           SKY/WX    TMP DP  RH WIND       PRES   REMARKS
ST. JOSEPH     CLOUDY    49  32  52 N6        30.13R
MOSBY          CLOUDY    55  30  38 N5        30.11R
WARRENSBURG    CLOUDY    52  32  46 N6        30.08R
WHITEMAN AFB   CLOUDY    53  35  50 N9        30.02R
CLINTON        CLOUDY    54  41  62 N9        30.05R
SEDALIA        CLOUDY    53  40  61 N8        30.05S
WARSAW         NOT AVBL
CHILLICOTHE      N/A     52  32  46 N6        30.13R
KIRKSVILLE     CLOUDY    50  33  52 NE9       30.12R

$$

MOZ041-047>049-056>058-063>065-088>090-097-231200-
...EASTERN AND SOUTHERN MISSOURI...

CITY           SKY/WX    TMP DP  RH WIND       PRES   REMARKS
ST. LOUIS INTL LGT RAIN  52  41  66 NE9       30.00R
SPIRIT OF STL  LGT RAIN  53  41  63 NE9       29.98S
COLUMBIA       CLOUDY    55  36  48 N13       30.03R
JEFFERSON CITY CLOUDY    57  38  48 N8        30.01S
ROLLA          LGT RAIN  50  43  77 NE9       29.98S
OSAGE BEACH    CLOUDY    53  47  79 N6        30.01R
SPRINGFIELD    CLOUDY    53  51  93 N13       29.97R
BRANSON        CLOUDY    50  50 100 NW9       29.95R FOG
JOPLIN         CLOUDY    53  48  83 N12       30.01R
WEST PLAINS    CLOUDY    53  50  89 N12       29.89S

$$

IAZ060-094-KSZ022-034>040-054-083-096-NEZ052-066-093-231200-
...KANSAS...SOUTHEAST NEBRASKA AND IOWA...

CITY           SKY/WX    TMP DP  RH WIND       PRES   REMARKS
TOPEKA         CLOUDY    51  35  54 CALM      30.11R
MANHATTAN      CLEAR     42  39  89 CALM      30.13
EMPORIA        CLOUDY    51  40  65 N3        30.09R
CHANUTE        CLOUDY    52  41  66 N9        30.06R
WICHITA        PTCLDY    49  45  86 N9        30.10R
OMAHA          PTCLDY    37  29  72 N9        30.18R WCI  30
LINCOLN        CLEAR     37  29  72 CALM      30.18S
FALLS CITY     CLEAR     48  28  46 N6        30.14R
LAMONI         CLOUDY    49  31  49 NE7       30.15R
DES MOINES     CLOUDY    50  29  44 NE7       30.19R

$$





USA.gov is the U.S. government's official web portal to all federal, state and local government web resources and services.